Phillips, WI

7:19 AM CDT on September 26, 2017 (GMT -0500)
Price County

Weather History for KPBH - January, 2012

Change the Weather History Date:

Wednesday, January 11, 2012

  Actual Average Record
Temperature  
Mean Temperature 35 °F -  
Max Temperature 44 °F 18 °F 44 °F (2012)
Min Temperature 26 °F 4 °F -25 °F (1999)
Degree Days  
Heating Degree Days 30    
Moisture  
Dew Point 31 °F    
Average Humidity 90    
Maximum Humidity 100    
Minimum Humidity 70    
Precipitation  
Precipitation 0.00 in - - ()
Sea Level Pressure  
Sea Level Pressure 29.60 in    
Wind  
Wind Speed 2 mph (NW)    
Max Wind Speed 14 mph    
Max Gust Speed 21 mph    
Visibility 8 miles    
Events Rain , Snow    
Averages and records for this station are not official NWS values.
T = Trace of Precipitation, MM = Missing Value Source: NWS Daily Summary

Daily Weather History Graph

Daily Weather History Graph

Search for Another Location

Airport or City:

Trip Planner

Search our weather history database for the weather conditions in past years. The results will help you decide how hot, cold, wet, or windy it might be!

Date:

Astronomy

Jan. 11, 2012 Rise Set
Actual Time 7:40 AM CST 4:38 PM CST
Civil Twilight 7:07 AM CST 5:11 PM CST
Nautical Twilight 6:30 AM CST 5:49 PM CST
Astronomical Twilight 5:54 AM CST 6:24 PM CST
Moon 7:48 PM CST (1/11) 8:43 AM CST (1/11)
Length of Visible Light 10h 04m
Length of Day
8h 57m
Waning Gibbous, 93% of the Moon is Illuminated
Jan 11
Waning Gibbous
Jan 16
Last Quarter
Jan 23
New
Jan 30
First Quarter
Feb 7
Full

Hourly Weather History & Observations

Time (CST) Temp. Windchill Dew Point Humidity Pressure Visibility Wind Dir Wind Speed Gust Speed Precip Events Conditions
12:15 AM 28.4 °F - 28.4 °F 100% 29.64 in 10.0 mi Calm Calm - N/A   Clear
12:35 AM 28.4 °F - 28.4 °F 100% 29.64 in 10.0 mi Calm Calm - N/A   Clear
12:55 AM 28.4 °F - 28.4 °F 100% 29.64 in 10.0 mi Calm Calm - N/A   Clear
1:15 AM 28.4 °F - 28.4 °F 100% 29.63 in 7.0 mi Calm Calm - N/A   Clear
1:35 AM 26.6 °F - 26.6 °F 100% 29.63 in 10.0 mi Calm Calm - N/A   Clear
1:55 AM 28.4 °F - 26.6 °F 93% 29.63 in 10.0 mi Calm Calm - N/A   Clear
2:15 AM 30.2 °F - 28.4 °F 93% 29.62 in 10.0 mi Calm Calm - N/A   Clear
2:35 AM 28.4 °F - 28.4 °F 100% 29.61 in 10.0 mi Calm Calm - N/A   Clear
2:55 AM 28.4 °F - 28.4 °F 100% 29.61 in 10.0 mi Calm Calm - N/A   Clear
3:15 AM 28.4 °F - 28.4 °F 100% 29.60 in 10.0 mi Calm Calm - N/A   Clear
3:35 AM 30.2 °F - 28.4 °F 93% 29.60 in 10.0 mi Calm Calm - N/A   Clear
3:55 AM 32.0 °F - 30.2 °F 93% 29.60 in 10.0 mi Calm Calm - N/A   Clear
4:15 AM 30.2 °F - 30.2 °F 100% 29.59 in 10.0 mi Calm Calm - N/A   Clear
4:35 AM 30.2 °F - 28.4 °F 93% 29.58 in 10.0 mi Calm Calm - N/A   Clear
4:55 AM 33.8 °F - 30.2 °F 87% 29.58 in 10.0 mi Calm Calm - N/A   Clear
5:15 AM 32.0 °F - 30.2 °F 93% 29.58 in 10.0 mi Calm Calm - N/A   Clear
5:35 AM 32.0 °F - 30.2 °F 93% 29.59 in 10.0 mi Calm Calm - N/A   Clear
5:55 AM 30.2 °F - 30.2 °F 100% 29.58 in 7.0 mi Calm Calm - N/A   Scattered Clouds
6:15 AM 32.0 °F - 30.2 °F 93% 29.59 in 10.0 mi Calm Calm - N/A   Overcast
6:35 AM 32.0 °F - 30.2 °F 93% 29.59 in 10.0 mi Calm Calm - N/A   Scattered Clouds
6:55 AM 32.0 °F - 30.2 °F 93% 29.58 in 10.0 mi Calm Calm - N/A   Scattered Clouds
7:15 AM 33.8 °F - 30.2 °F 87% 29.58 in 10.0 mi Calm Calm - N/A   Scattered Clouds
7:35 AM 33.8 °F - 30.2 °F 87% 29.58 in 10.0 mi Calm Calm - N/A   Scattered Clouds
7:55 AM 32.0 °F - 30.2 °F 93% 29.58 in 7.0 mi Calm Calm - N/A   Scattered Clouds
8:15 AM 33.8 °F - 30.2 °F 87% 29.58 in 7.0 mi Calm Calm - N/A   Scattered Clouds
8:55 AM 35.6 °F - 32.0 °F 87% 29.58 in 10.0 mi Calm Calm - N/A   Clear
9:15 AM 35.6 °F - 33.8 °F 93% 29.59 in 7.0 mi Calm Calm - N/A   Clear
9:35 AM 37.4 °F - 33.8 °F 87% 29.58 in 10.0 mi Calm Calm - N/A   Clear
9:55 AM 37.4 °F - 33.8 °F 87% 29.58 in 10.0 mi Calm Calm - N/A   Clear
10:15 AM 37.4 °F - 33.8 °F 87% 29.58 in 10.0 mi Calm Calm - N/A   Clear
10:35 AM 39.2 °F - 33.8 °F 81% 29.58 in 10.0 mi Calm Calm - N/A   Clear
10:55 AM 39.2 °F - 33.8 °F 81% 29.57 in 10.0 mi Calm Calm - N/A   Clear
11:15 AM 39.2 °F - 33.8 °F 81% 29.56 in 10.0 mi Calm Calm - N/A   Clear
11:35 AM 41.0 °F - 33.8 °F 76% 29.56 in 10.0 mi Calm Calm - N/A   Clear
11:55 AM 42.8 °F 40.1 °F 33.8 °F 70% 29.56 in 10.0 mi WNW 4.6 mph - N/A   Clear
12:35 PM 42.8 °F 40.1 °F 35.6 °F 76% 29.55 in 10.0 mi NW 4.6 mph - N/A   Scattered Clouds
12:55 PM 42.8 °F - 35.6 °F 76% 29.55 in 10.0 mi Calm Calm - N/A   Mostly Cloudy
1:15 PM 44.6 °F 39.2 °F 35.6 °F 71% 29.55 in 10.0 mi NNW 10.4 mph - N/A   Scattered Clouds
1:35 PM - - - N/A% 29.58 in - NNW 6.9 mph - N/A   Unknown
1:55 PM 42.8 °F 37.5 °F 35.6 °F 76% 29.56 in 10.0 mi NNW 9.2 mph - N/A   Overcast
2:15 PM 41.0 °F 35.8 °F 35.6 °F 81% 29.57 in 10.0 mi NW 8.1 mph - N/A   Overcast
2:35 PM 39.2 °F 34.2 °F 35.6 °F 87% 29.58 in 10.0 mi NNW 6.9 mph - N/A   Overcast
2:55 PM 39.2 °F 34.2 °F 35.6 °F 87% 29.59 in 7.0 mi NW 6.9 mph - N/A   Drizzle
3:15 PM 37.4 °F 33.8 °F 35.6 °F 93% 29.60 in 4.0 mi NNW 4.6 mph - N/A Rain Light Rain
3:35 PM 35.6 °F 31.7 °F 35.6 °F 100% 29.61 in 2.0 mi NW 4.6 mph - N/A Rain Rain
3:55 PM 35.6 °F - 33.8 °F 93% 29.61 in 1.0 mi Calm Calm - N/A Snow Light Snow
4:15 PM 35.6 °F 32.8 °F 33.8 °F 93% 29.61 in 1.2 mi NW 3.5 mph - N/A Snow Light Snow
4:35 PM 35.6 °F 31.7 °F 33.8 °F 93% 29.61 in 1.0 mi NW 4.6 mph - N/A Snow Light Snow
4:55 PM 35.6 °F 31.7 °F 33.8 °F 93% 29.62 in 2.0 mi NW 4.6 mph - N/A Snow Light Snow
5:15 PM 35.6 °F 31.7 °F 33.8 °F 93% 29.62 in 2.5 mi NNW 4.6 mph - N/A Snow Light Snow
5:35 PM 35.6 °F 29.9 °F 33.8 °F 93% 29.63 in 2.5 mi NNW 6.9 mph - N/A Snow Light Snow
6:15 PM 33.8 °F 24.3 °F 30.2 °F 87% 29.64 in 2.0 mi NW 13.8 mph 20.7 mph N/A Snow Light Snow
6:35 PM 32.0 °F 24.2 °F 30.2 °F 93% 29.64 in 2.5 mi NNW 9.2 mph - N/A Snow Light Snow
6:55 PM 30.2 °F 21.3 °F 28.4 °F 93% 29.64 in 4.0 mi NNW 10.4 mph 16.1 mph N/A Snow Light Snow
7:15 PM 30.2 °F 21.9 °F 28.4 °F 93% 29.65 in 7.0 mi NW 9.2 mph - N/A   Overcast
7:35 PM 30.2 °F 20.8 °F 26.6 °F 86% 29.65 in 10.0 mi NW 11.5 mph 17.3 mph N/A   Overcast
7:55 PM 28.4 °F 19.1 °F 26.6 °F 93% 29.66 in 10.0 mi NNW 10.4 mph 18.4 mph N/A   Overcast
8:15 PM 28.4 °F 20.4 °F 26.6 °F 93% 29.66 in 5.0 mi NW 8.1 mph - N/A   Overcast
8:35 PM 28.4 °F 19.1 °F 24.8 °F 86% 29.67 in 5.0 mi NW 10.4 mph 17.3 mph N/A   Overcast
8:55 PM 26.6 °F 20.0 °F 24.8 °F 93% 29.67 in 2.0 mi NNW 5.8 mph - N/A Snow Light Snow
9:15 PM 26.6 °F 18.2 °F 24.8 °F 93% 29.67 in 2.0 mi NW 8.1 mph - N/A Snow Light Snow
9:35 PM 24.8 °F 16.9 °F 23.0 °F 93% 29.66 in 3.0 mi NNW 6.9 mph - N/A Snow Light Snow
9:55 PM 24.8 °F 15.3 °F 21.2 °F 86% 29.66 in 4.0 mi NNW 9.2 mph - N/A Snow Light Snow
10:15 PM 24.8 °F 16.1 °F 21.2 °F 86% 29.66 in 4.0 mi NNW 8.1 mph - N/A Snow Light Snow
10:35 PM 24.8 °F 16.1 °F 21.2 °F 86% 29.66 in 4.0 mi NNW 8.1 mph - N/A Snow Light Snow
10:55 PM 24.8 °F 16.1 °F 21.2 °F 86% 29.66 in 2.5 mi NNW 8.1 mph - N/A Snow Light Snow
11:15 PM 23.0 °F 11.7 °F 21.2 °F 93% 29.66 in 3.0 mi NNW 11.5 mph 17.3 mph N/A Snow Light Snow
11:35 PM 23.0 °F 13.9 °F 19.4 °F 86% 29.66 in 5.0 mi NNW 8.1 mph - N/A Snow Light Snow
11:55 PM 21.2 °F 9.5 °F 19.4 °F 93% 29.66 in 10.0 mi NNW 11.5 mph 18.4 mph N/A   Overcast